Time,TemperatureF,DewpointF,PressureIn,WindDirection,WindDirectionDegrees,WindSpeedMPH,WindSpeedGustMPH,Humidity,HourlyPrecipIn,Conditions,Clouds,dailyrainin,SoftwareType,DateUTC
2013-04-16 00:07:00,50.9,45.9,30.32,ESE,112,3.2,-999.0,83,-99.99,,,0.00,Acu-Link.com,2013-04-16 04:07:00,
2013-04-16 00:22:00,51.3,46.0,30.31,SSE,157,3.2,-999.0,82,-99.99,,,0.00,Acu-Link.com,2013-04-16 04:22:00,
2013-04-16 00:37:00,51.4,46.1,30.31,SE,135,5.3,-999.0,82,-99.99,,,0.00,Acu-Link.com,2013-04-16 04:37:00,
2013-04-16 00:52:00,52.0,46.4,30.31,ESE,112,3.2,-999.0,81,-99.99,,,0.00,Acu-Link.com,2013-04-16 04:52:00,
2013-04-16 01:08:00,52.2,46.5,30.31,ESE,112,5.3,-999.0,81,-99.99,,,0.00,Acu-Link.com,2013-04-16 05:08:00,
2013-04-16 01:23:00,52.3,46.6,30.31,NE,45,2.7,-999.0,81,-99.99,,,0.00,Acu-Link.com,2013-04-16 05:23:00,
2013-04-16 01:38:00,52.5,46.5,30.30,ESE,112,3.7,-999.0,80,-99.99,,,0.00,Acu-Link.com,2013-04-16 05:38:00,
2013-04-16 01:53:00,52.5,46.5,30.29,East,90,3.7,-999.0,80,-99.99,,,0.00,Acu-Link.com,2013-04-16 05:53:00,
2013-04-16 02:08:00,52.5,46.5,30.29,South,180,2.7,-999.0,80,-99.99,,,0.00,Acu-Link.com,2013-04-16 06:08:00,
2013-04-16 02:24:00,52.5,46.5,30.29,ESE,112,2.2,-999.0,80,-99.99,,,0.00,Acu-Link.com,2013-04-16 06:24:00,
2013-04-16 02:39:00,52.5,46.5,30.29,SE,135,5.8,-999.0,80,-99.99,,,0.00,Acu-Link.com,2013-04-16 06:39:00,
2013-04-16 02:54:00,52.5,46.5,30.29,ESE,112,0.0,-999.0,80,-99.99,,,0.00,Acu-Link.com,2013-04-16 06:54:00,
2013-04-16 03:09:00,52.3,46.3,30.28,East,90,6.3,-999.0,80,-99.99,,,0.00,Acu-Link.com,2013-04-16 07:09:00,
2013-04-16 03:25:00,52.2,46.5,30.29,ESE,112,0.0,-999.0,81,-99.99,,,0.00,Acu-Link.com,2013-04-16 07:25:00,
2013-04-16 03:40:00,52.3,46.6,30.29,ESE,112,2.7,-999.0,81,-99.99,,,0.00,Acu-Link.com,2013-04-16 07:40:00,
2013-04-16 03:55:00,52.3,46.6,30.29,SSE,157,0.0,-999.0,81,-99.99,,,0.00,Acu-Link.com,2013-04-16 07:55:00,
2013-04-16 04:10:00,52.3,46.6,30.29,SSW,202,0.0,-999.0,81,-99.99,,,0.00,Acu-Link.com,2013-04-16 08:10:00,
2013-04-16 04:25:00,52.3,46.6,30.29,ESE,112,0.0,-999.0,81,-99.99,,,0.00,Acu-Link.com,2013-04-16 08:25:00,
2013-04-16 04:40:00,52.2,46.9,30.29,ESE,112,1.1,-999.0,82,-99.99,,,0.00,Acu-Link.com,2013-04-16 08:40:00,
2013-04-16 04:55:00,51.8,46.8,30.29,SE,135,0.0,-999.0,83,-99.99,,,0.00,Acu-Link.com,2013-04-16 08:55:00,
2013-04-16 05:11:00,51.1,46.4,30.29,ESE,112,0.0,-999.0,84,-99.99,,,0.00,Acu-Link.com,2013-04-16 09:11:00,
2013-04-16 05:26:00,50.4,46.4,30.29,ESE,112,0.0,-999.0,86,-99.99,,,0.00,Acu-Link.com,2013-04-16 09:26:00,
2013-04-16 05:41:00,49.5,46.1,30.30,ESE,112,0.0,-999.0,88,-99.99,,,0.00,Acu-Link.com,2013-04-16 09:41:00,
2013-04-16 05:56:00,48.7,45.6,30.30,ESE,112,0.0,-999.0,89,-99.99,,,0.00,Acu-Link.com,2013-04-16 09:56:00,
2013-04-16 06:12:00,48.7,46.2,30.31,NNE,22,0.0,-999.0,91,-99.99,,,0.00,Acu-Link.com,2013-04-16 10:12:00,
2013-04-16 06:27:00,49.5,47.0,30.30,East,90,2.7,-999.0,91,-99.99,,,0.00,Acu-Link.com,2013-04-16 10:27:00,
2013-04-16 06:42:00,50.0,47.5,30.31,ESE,112,2.7,-999.0,91,-99.99,,,0.00,Acu-Link.com,2013-04-16 10:42:00,
2013-04-16 06:57:00,50.9,47.8,30.31,ESE,112,0.0,-999.0,89,-99.99,,,0.00,Acu-Link.com,2013-04-16 10:57:00,
2013-04-16 07:12:00,52.0,48.6,30.32,SE,135,0.0,-999.0,88,-99.99,,,0.00,Acu-Link.com,2013-04-16 11:12:00,
2013-04-16 07:28:00,53.8,49.1,30.32,SSE,157,2.2,-999.0,84,-99.99,,,0.00,Acu-Link.com,2013-04-16 11:28:00,
2013-04-16 07:43:00,54.3,48.6,30.32,SSE,157,5.8,-999.0,81,-99.99,,,0.00,Acu-Link.com,2013-04-16 11:43:00,
2013-04-16 07:58:00,57.2,49.3,30.32,SSE,157,4.7,-999.0,75,-99.99,,,0.00,Acu-Link.com,2013-04-16 11:58:00,
2013-04-16 08:13:00,60.1,49.9,30.33,ESE,112,3.7,-999.0,69,-99.99,,,0.00,Acu-Link.com,2013-04-16 12:13:00,
2013-04-16 08:28:00,61.0,50.0,30.33,South,180,3.7,-999.0,67,-99.99,,,0.00,Acu-Link.com,2013-04-16 12:28:00,
2013-04-16 08:44:00,62.8,50.4,30.33,SW,225,2.7,-999.0,64,-99.99,,,0.00,Acu-Link.com,2013-04-16 12:44:00,
2013-04-16 08:59:00,64.0,50.7,30.32,SSE,157,5.3,-999.0,62,-99.99,,,0.00,Acu-Link.com,2013-04-16 12:59:00,
2013-04-16 09:14:00,62.1,51.0,30.32,ESE,112,6.3,-999.0,67,-99.99,,,0.00,Acu-Link.com,2013-04-16 13:14:00,
2013-04-16 09:29:00,63.0,51.9,30.33,ESE,112,5.3,-999.0,67,-99.99,,,0.00,Acu-Link.com,2013-04-16 13:29:00,
2013-04-16 09:44:00,63.9,52.3,30.33,SE,135,6.3,-999.0,66,-99.99,,,0.00,Acu-Link.com,2013-04-16 13:44:00,
2013-04-16 10:00:00,65.1,53.0,30.33,SSE,157,4.7,-999.0,65,-99.99,,,0.00,Acu-Link.com,2013-04-16 14:00:00,
2013-04-16 10:15:00,66.6,53.6,30.33,South,180,3.2,-999.0,63,-99.99,,,0.00,Acu-Link.com,2013-04-16 14:15:00,
2013-04-16 10:30:00,67.6,54.1,30.32,SE,135,3.7,-999.0,62,-99.99,,,0.00,Acu-Link.com,2013-04-16 14:30:00,
2013-04-16 10:45:00,67.8,54.3,30.31,SSE,157,5.3,-999.0,62,-99.99,,,0.00,Acu-Link.com,2013-04-16 14:45:00,
2013-04-16 11:01:00,68.4,54.9,30.31,SSW,202,5.8,-999.0,62,-99.99,,,0.00,Acu-Link.com,2013-04-16 15:01:00,
2013-04-16 11:16:00,68.9,55.3,30.31,SSE,157,3.7,-999.0,62,-99.99,,,0.00,Acu-Link.com,2013-04-16 15:16:00,
2013-04-16 11:46:00,70.7,55.2,30.30,ESE,112,6.8,-999.0,58,-99.99,,,0.00,Acu-Link.com,2013-04-16 15:46:00,
2013-04-16 12:01:00,72.5,56.4,30.30,SE,135,7.8,-999.0,57,-99.99,,,0.00,Acu-Link.com,2013-04-16 16:01:00,
2013-04-16 12:17:00,72.3,55.7,30.29,SSE,157,8.3,-999.0,56,-99.99,,,0.00,Acu-Link.com,2013-04-16 16:17:00,
2013-04-16 12:32:00,71.6,56.0,30.29,SSE,157,5.3,-999.0,58,-99.99,,,0.00,Acu-Link.com,2013-04-16 16:32:00,
2013-04-16 12:47:00,71.4,55.8,30.28,South,180,4.2,-999.0,58,-99.99,,,0.00,Acu-Link.com,2013-04-16 16:47:00,
2013-04-16 13:03:00,72.9,56.8,30.28,WSW,247,6.8,-999.0,57,-99.99,,,0.00,Acu-Link.com,2013-04-16 17:03:00,
2013-04-16 13:18:00,72.7,55.6,30.28,SE,135,4.7,-999.0,55,-99.99,,,0.00,Acu-Link.com,2013-04-16 17:18:00,
2013-04-16 13:33:00,74.5,56.7,30.27,South,180,6.3,-999.0,54,-99.99,,,0.00,Acu-Link.com,2013-04-16 17:33:00,
2013-04-16 13:48:00,72.7,55.6,30.26,East,90,5.3,-999.0,55,-99.99,,,0.00,Acu-Link.com,2013-04-16 17:48:00,
2013-04-16 14:03:00,74.1,56.4,30.26,SSE,157,7.8,-999.0,54,-99.99,,,0.00,Acu-Link.com,2013-04-16 18:03:00,
2013-04-16 14:19:00,74.8,57.0,30.25,SSW,202,13.0,-999.0,54,-99.99,,,0.00,Acu-Link.com,2013-04-16 18:19:00,
2013-04-16 14:34:00,74.3,56.6,30.24,ESE,112,11.9,-999.0,54,-99.99,,,0.00,Acu-Link.com,2013-04-16 18:34:00,
2013-04-16 14:49:00,74.1,56.4,30.24,SE,135,7.3,-999.0,54,-99.99,,,0.00,Acu-Link.com,2013-04-16 18:49:00,
2013-04-16 15:05:00,74.3,57.1,30.23,SE,135,6.8,-999.0,55,-99.99,,,0.00,Acu-Link.com,2013-04-16 19:05:00,
2013-04-16 15:20:00,72.5,55.9,30.22,SSE,157,4.2,-999.0,56,-99.99,,,0.00,Acu-Link.com,2013-04-16 19:20:00,
2013-04-16 15:35:00,72.0,55.4,30.22,SE,135,4.2,-999.0,56,-99.99,,,0.00,Acu-Link.com,2013-04-16 19:35:00,
2013-04-16 15:50:00,73.4,56.2,30.21,South,180,7.8,-999.0,55,-99.99,,,0.00,Acu-Link.com,2013-04-16 19:50:00,
2013-04-16 16:05:00,73.0,56.4,30.20,SSE,157,6.8,-999.0,56,-99.99,,,0.00,Acu-Link.com,2013-04-16 20:05:00,
2013-04-16 16:21:00,72.3,56.2,30.20,ESE,112,4.7,-999.0,57,-99.99,,,0.00,Acu-Link.com,2013-04-16 20:21:00,
2013-04-16 16:51:00,72.5,55.9,30.20,ESE,112,6.8,-999.0,56,-99.99,,,0.00,Acu-Link.com,2013-04-16 20:51:00,
2013-04-16 17:06:00,72.0,55.9,30.20,South,180,6.8,-999.0,57,-99.99,,,0.00,Acu-Link.com,2013-04-16 21:06:00,
2013-04-16 17:21:00,71.1,56.0,30.20,South,180,6.3,-999.0,59,-99.99,,,0.00,Acu-Link.com,2013-04-16 21:21:00,
2013-04-16 17:37:00,72.5,55.9,30.20,SE,135,4.7,-999.0,56,-99.99,,,0.00,Acu-Link.com,2013-04-16 21:37:00,
2013-04-16 17:52:00,71.1,55.6,30.19,SSE,157,6.8,-999.0,58,-99.99,,,0.00,Acu-Link.com,2013-04-16 21:52:00,
2013-04-16 18:07:00,70.9,55.4,30.20,SSE,157,8.3,-999.0,58,-99.99,,,0.00,Acu-Link.com,2013-04-16 22:07:00,
2013-04-16 18:22:00,69.6,55.5,30.19,SW,225,5.3,-999.0,61,-99.99,,,0.00,Acu-Link.com,2013-04-16 22:22:00,
2013-04-16 18:37:00,68.7,56.0,30.19,SE,135,4.7,-999.0,64,-99.99,,,0.00,Acu-Link.com,2013-04-16 22:37:00,
2013-04-16 18:53:00,66.7,55.4,30.19,SSE,157,7.8,-999.0,67,-99.99,,,0.00,Acu-Link.com,2013-04-16 22:53:00,
2013-04-16 19:08:00,65.7,55.2,30.18,NNE,22,4.7,-999.0,69,-99.99,,,0.00,Acu-Link.com,2013-04-16 23:08:00,
2013-04-16 19:23:00,64.8,55.2,30.18,South,180,4.7,-999.0,71,-99.99,,,0.00,Acu-Link.com,2013-04-16 23:23:00,
2013-04-16 19:38:00,64.0,54.8,30.18,ESE,112,5.3,-999.0,72,-99.99,,,0.00,Acu-Link.com,2013-04-16 23:38:00,
2013-04-16 19:54:00,63.3,54.1,30.18,SSE,157,4.7,-999.0,72,-99.99,,,0.00,Acu-Link.com,2013-04-16 23:54:00,
2013-04-16 20:09:00,62.8,54.0,30.17,South,180,6.8,-999.0,73,-99.99,,,0.00,Acu-Link.com,2013-04-17 00:09:00,
2013-04-16 20:24:00,62.6,54.2,30.16,South,180,8.9,-999.0,74,-99.99,,,0.00,Acu-Link.com,2013-04-17 00:24:00,
2013-04-16 20:39:00,62.2,54.2,30.16,SSW,202,4.7,-999.0,75,-99.99,,,0.00,Acu-Link.com,2013-04-17 00:39:00,
2013-04-16 20:55:00,61.9,54.2,30.15,South,180,6.3,-999.0,76,-99.99,,,0.00,Acu-Link.com,2013-04-17 00:55:00,
2013-04-16 21:10:00,61.5,53.9,30.15,SSE,157,9.9,-999.0,76,-99.99,,,0.00,Acu-Link.com,2013-04-17 01:10:00,
2013-04-16 21:25:00,61.5,53.9,30.14,SW,225,6.3,-999.0,76,-99.99,,,0.00,Acu-Link.com,2013-04-17 01:25:00,
2013-04-16 21:40:00,61.2,53.6,30.14,SE,135,7.8,-999.0,76,-99.99,,,0.00,Acu-Link.com,2013-04-17 01:40:00,
2013-04-16 21:56:00,61.2,53.6,30.15,South,180,3.7,-999.0,76,-99.99,,,0.00,Acu-Link.com,2013-04-17 01:56:00,
2013-04-16 22:26:00,60.8,53.5,30.16,West,270,3.2,-999.0,77,-99.99,,,0.00,Acu-Link.com,2013-04-17 02:26:00,
2013-04-16 22:57:00,59.9,53.4,30.19,SSW,202,2.7,-999.0,79,-99.99,,,0.00,Acu-Link.com,2013-04-17 02:57:00,
2013-04-16 23:12:00,59.5,53.3,30.18,NNE,22,2.2,-999.0,80,-99.99,,,0.00,Acu-Link.com,2013-04-17 03:12:00,
2013-04-16 23:27:00,59.4,53.6,30.17,SSW,202,0.0,-999.0,81,-99.99,,,0.00,Acu-Link.com,2013-04-17 03:27:00,
2013-04-16 23:42:00,58.8,53.3,30.17,SSW,202,0.0,-999.0,82,-99.99,,,0.00,Acu-Link.com,2013-04-17 03:42:00,
2013-04-16 23:58:00,58.3,53.2,30.18,SSE,157,0.0,-999.0,83,-99.99,,,0.00,Acu-Link.com,2013-04-17 03:58:00,